Overview Statistics Trail Chart Weather Telemetry Raw packets
 

This is the latest recevied weather packets stored in our database for station/object K5MGY. If no packets are shown the sender has not sent any weather packets the latest 10 day(s).

<< 100 101 102 103 104 105 106 >>
Time Temp. Humidity Pressure Rain* Wind** Luminosity Snow
1787855043 38.89° C 39% 1039.3 hPa 0 mm - 674 W/m² -
1787854738 38.89° C 38% 1039.2 hPa 0 mm - 708 W/m² -
1787854437 38.89° C 40% 1039.2 hPa 0 mm - 681 W/m² -
1787854133 38.89° C 38% 1039.4 hPa 0 mm - 665 W/m² -
1787853827 38.89° C 39% 1039.4 hPa 0 mm - 685 W/m² -
1787853526 38.33° C 39% 1039.7 hPa 0 mm - 693 W/m² -
1787853221 38.89° C 39% 1039.5 hPa 0 mm - 672 W/m² -
1787852920 38.89° C 39% 1039.5 hPa 0 mm - 679 W/m² -
1787852615 38.89° C 39% 1039.5 hPa 0 mm - 670 W/m² -
1787852314 38.89° C 39% 1039.3 hPa 0 mm - 665 W/m² -
1787852014 38.33° C 41% 1039.5 hPa 0 mm - 664 W/m² -
1787851714 38.33° C 41% 1039.7 hPa 0 mm - 653 W/m² -
1787851414 37.78° C 41% 1039.7 hPa 0 mm - 647 W/m² -
1787851109 37.78° C 42% 1039.9 hPa 0 mm - 635 W/m² -
1787850804 37.78° C 42% 1039.7 hPa 0 mm - 645 W/m² -
1787850501 37.78° C 43% 1039.6 hPa 0 mm - 629 W/m² -
1787850201 37.78° C 43% 1039.8 hPa 0 mm - 621 W/m² -
1787849895 37.78° C 44% 1039.7 hPa 0 mm - 618 W/m² -
1787849590 37.22° C 45% 1039.8 hPa 0 mm - 606 W/m² -
1787849289 37.22° C 45% 1040 hPa 0 mm - 602 W/m² -
1787848988 36.67° C 48% 1039.9 hPa 0 mm - 573 W/m² -
1787848684 36.67° C 48% 1039.9 hPa 0 mm - 557 W/m² -
1787848379 36.67° C 47% 1039.9 hPa 0 mm - 559 W/m² -
1787848079 36.67° C 49% 1040.4 hPa 0 mm - 539 W/m² -
1787847778 36.67° C 47% 1040.2 hPa 0 mm - 549 W/m² -

* Rain latest hour (hover to see other rain measurements)
** Current wind speed in m/s (hover to see current wind gust speed)